Grove, OK

4:19 PM CDT on May 26, 2017 (GMT -0500)
Grove Municipal

Weather History for KGMJ - September, 2013

Change the Weather History Date:

Friday, September 13, 2013

  Actual Average (KSLG) Record (KSLG)
Temperature  
Mean Temperature 72 °F -  
Max Temperature 84 °F 79 °F 98 °F (2011)
Min Temperature 60 °F 58 °F 48 °F (2006)
Cooling Degree Days 7    
Growing Degree Days 22 (Base 50)    
Moisture  
Dew Point 54 °F    
Average Humidity 54    
Maximum Humidity 88    
Minimum Humidity 28    
Precipitation  
Precipitation 0.00 in - - ()
Sea Level Pressure  
Sea Level Pressure 30.07 in    
Wind  
Wind Speed 3 mph (NE)    
Max Wind Speed 9 mph    
Max Gust Speed -    
Visibility 10 miles    
Events      
Averages and records for this station are not official NWS values.
T = Trace of Precipitation, MM = Missing Value Source: NWS Daily Summary

Daily Weather History Graph

Daily Weather History Graph

Search for Another Location

Airport or City:

Trip Planner

Search our weather history database for the weather conditions in past years. The results will help you decide how hot, cold, wet, or windy it might be!

Date:

Astronomy

Sep. 13, 2013 Rise Set
Actual Time 6:59 AM CDT 7:28 PM CDT
Civil Twilight 6:33 AM CDT 7:54 PM CDT
Nautical Twilight 6:03 AM CDT 8:25 PM CDT
Astronomical Twilight 5:32 AM CDT 8:56 PM CDT
Moon 3:12 PM CDT (9/13) 12:37 AM CDT (9/13)
Length of Visible Light 13h 20m
Length of Day
12h 29m
First Quarter, 61% of the Moon is Illuminated
Sep 13
First Quarter
Sep 19
Full
Sep 26
Last Quarter
Oct 4
New
Oct 11
First Quarter

Hourly Weather History & Observations

Time (CDT) Temp. Dew Point Humidity Pressure Visibility Wind Dir Wind Speed Gust Speed Precip Events Conditions
12:15 AM 73.4 °F 69.8 °F 88% 30.08 in 10.0 mi Calm Calm - N/A   Scattered Clouds
12:35 AM 73.4 °F 68.0 °F 83% 30.07 in 10.0 mi Calm Calm - N/A   Scattered Clouds
12:55 AM 73.4 °F 68.0 °F 83% 30.07 in 10.0 mi Calm Calm - N/A   Mostly Cloudy
1:15 AM 73.4 °F 68.0 °F 83% 30.07 in 10.0 mi Calm Calm - N/A   Mostly Cloudy
1:35 AM 73.4 °F 68.0 °F 83% 30.07 in 10.0 mi Calm Calm - N/A   Mostly Cloudy
1:55 AM 73.4 °F 68.0 °F 83% 30.08 in 10.0 mi Calm Calm - N/A   Scattered Clouds
2:15 AM 71.6 °F 68.0 °F 88% 30.07 in 10.0 mi Calm Calm - N/A   Clear
2:35 AM 71.6 °F 68.0 °F 88% 30.08 in 10.0 mi NE 3.5 mph - N/A   Clear
2:55 AM 73.4 °F 64.4 °F 73% 30.08 in 10.0 mi NE 4.6 mph - N/A   Clear
3:15 AM 71.6 °F 62.6 °F 73% 30.08 in 10.0 mi ENE 5.8 mph - N/A   Scattered Clouds
3:35 AM 71.6 °F 60.8 °F 69% 30.08 in 10.0 mi NE 4.6 mph - N/A   Mostly Cloudy
3:55 AM 71.6 °F 60.8 °F 69% 30.08 in 10.0 mi NE 5.8 mph - N/A   Scattered Clouds
4:15 AM 71.6 °F 59.0 °F 64% 30.08 in 10.0 mi NE 5.8 mph - N/A   Clear
4:35 AM 71.6 °F 59.0 °F 64% 30.08 in 10.0 mi NE 5.8 mph - N/A   Clear
4:55 AM 69.8 °F 57.2 °F 64% 30.08 in 10.0 mi NE 5.8 mph - N/A   Clear
5:15 AM 69.8 °F 55.4 °F 60% 30.09 in 10.0 mi NE 4.6 mph - N/A   Clear
5:35 AM 69.8 °F 55.4 °F 60% 30.09 in 10.0 mi ENE 5.8 mph - N/A   Clear
5:55 AM 68.0 °F 55.4 °F 64% 30.09 in 10.0 mi ENE 4.6 mph - N/A   Clear
6:15 AM 68.0 °F 55.4 °F 64% 30.10 in 10.0 mi Calm Calm - N/A   Clear
6:35 AM 68.0 °F 55.4 °F 64% 30.10 in 10.0 mi NE 5.8 mph - N/A   Scattered Clouds
6:55 AM 68.0 °F 53.6 °F 60% 30.10 in 10.0 mi Calm Calm - N/A   Overcast
7:15 AM 66.2 °F 53.6 °F 64% 30.11 in 10.0 mi NE 3.5 mph - N/A   Scattered Clouds
7:35 AM 66.2 °F 53.6 °F 64% 30.11 in 10.0 mi NE 4.6 mph - N/A   Scattered Clouds
7:55 AM 68.0 °F 53.6 °F 60% 30.11 in 10.0 mi NE 4.6 mph - N/A   Clear
8:15 AM 68.0 °F 53.6 °F 60% 30.12 in 10.0 mi NE 5.8 mph - N/A   Clear
8:35 AM 68.0 °F 53.6 °F 60% 30.12 in 10.0 mi ENE 4.6 mph - N/A   Clear
8:55 AM 69.8 °F 51.8 °F 53% 30.12 in 10.0 mi NE 4.6 mph - N/A   Clear
9:15 AM 71.6 °F 51.8 °F 50% 30.12 in 10.0 mi NE 6.9 mph - N/A   Clear
9:35 AM 73.4 °F 51.8 °F 47% 30.12 in 10.0 mi ENE 5.8 mph - N/A   Clear
9:55 AM 75.2 °F 51.8 °F 44% 30.12 in 10.0 mi ENE 6.9 mph - N/A   Clear
10:15 AM 77.0 °F 50.0 °F 39% 30.12 in 10.0 mi East 8.1 mph - N/A   Clear
10:35 AM 77.0 °F 50.0 °F 39% 30.12 in 10.0 mi ENE 8.1 mph - N/A   Clear
10:55 AM 78.8 °F 50.0 °F 36% 30.12 in 10.0 mi ENE 9.2 mph - N/A   Clear
11:15 AM 78.8 °F 50.0 °F 36% 30.12 in 10.0 mi ENE 6.9 mph - N/A   Clear
11:35 AM 80.6 °F 51.8 °F 37% 30.11 in 10.0 mi ENE 4.6 mph - N/A   Clear
11:55 AM 78.8 °F 50.0 °F 36% 30.11 in 10.0 mi NE 9.2 mph - N/A   Clear
12:15 PM 80.6 °F 51.8 °F 37% 30.11 in 10.0 mi NE 8.1 mph - N/A   Clear
12:35 PM 80.6 °F 50.0 °F 34% 30.10 in 10.0 mi East 5.8 mph - N/A   Clear
12:55 PM 80.6 °F 50.0 °F 34% 30.10 in 10.0 mi NE 5.8 mph - N/A   Clear
1:15 PM 80.6 °F 51.8 °F 37% 30.09 in 10.0 mi North 5.8 mph - N/A   Clear
1:35 PM 82.4 °F 51.8 °F 35% 30.08 in 10.0 mi NE 4.6 mph - N/A   Clear
1:55 PM 82.4 °F 51.8 °F 35% 30.07 in 10.0 mi North 8.1 mph - N/A   Clear
2:15 PM 82.4 °F 51.8 °F 35% 30.06 in 10.0 mi NE 6.9 mph - N/A   Clear
2:35 PM 84.2 °F 50.0 °F 30% 30.05 in 10.0 mi NE 6.9 mph - N/A   Clear
2:55 PM 84.2 °F 50.0 °F 30% 30.05 in 10.0 mi NNE 6.9 mph - N/A   Clear
3:15 PM 84.2 °F 50.0 °F 30% 30.05 in 10.0 mi NE 9.2 mph - N/A   Clear
3:35 PM 84.2 °F 50.0 °F 30% 30.04 in 10.0 mi North 6.9 mph - N/A   Clear
3:55 PM 82.4 °F 50.0 °F 32% 30.03 in 10.0 mi NNE 3.5 mph - N/A   Clear
4:15 PM 82.4 °F 46.4 °F 28% 30.03 in 10.0 mi NNE 5.8 mph - N/A   Clear
4:35 PM 82.4 °F 50.0 °F 32% 30.02 in 10.0 mi NE 9.2 mph - N/A   Clear
4:55 PM 82.4 °F 48.2 °F 30% 30.02 in 10.0 mi NE 6.9 mph - N/A   Clear
5:15 PM 82.4 °F 48.2 °F 30% 30.02 in 10.0 mi NE 8.1 mph - N/A   Clear
5:35 PM 80.6 °F 48.2 °F 32% 30.02 in 10.0 mi NE 5.8 mph - N/A   Clear
5:55 PM 80.6 °F 50.0 °F 34% 30.02 in 10.0 mi NE 6.9 mph - N/A   Clear
6:15 PM 78.8 °F 48.2 °F 34% 30.02 in 10.0 mi NE 5.8 mph - N/A   Clear
6:35 PM 78.8 °F 50.0 °F 36% 30.03 in 10.0 mi NNE 5.8 mph - N/A   Clear
6:55 PM 77.0 °F 51.8 °F 41% 30.03 in 10.0 mi NE 3.5 mph - N/A   Clear
7:15 PM 73.4 °F 53.6 °F 50% 30.03 in 10.0 mi Calm Calm - N/A   Clear
7:35 PM 73.4 °F 51.8 °F 47% 30.03 in 10.0 mi NNE 4.6 mph - N/A   Clear
7:55 PM 71.6 °F 51.8 °F 50% 30.03 in 10.0 mi NE 4.6 mph - N/A   Clear
8:15 PM 69.8 °F 53.6 °F 56% 30.04 in 10.0 mi Calm Calm - N/A   Clear
8:35 PM 69.8 °F 53.6 °F 56% 30.05 in 10.0 mi Calm Calm - N/A   Clear
8:55 PM 68.0 °F 53.6 °F 60% 30.05 in 10.0 mi Calm Calm - N/A   Clear
9:15 PM 64.4 °F 53.6 °F 68% 30.05 in 10.0 mi Calm Calm - N/A   Clear
9:35 PM 66.2 °F 51.8 °F 60% 30.06 in 10.0 mi Calm Calm - N/A   Clear
9:55 PM 64.4 °F 51.8 °F 64% 30.06 in 10.0 mi NE 3.5 mph - N/A   Clear
10:15 PM 64.4 °F 51.8 °F 64% 30.06 in 10.0 mi Calm Calm - N/A   Clear
10:35 PM 62.6 °F 51.8 °F 68% 30.05 in 10.0 mi Calm Calm - N/A   Clear
10:55 PM 62.6 °F 51.8 °F 68% 30.05 in 10.0 mi Calm Calm - N/A   Clear
11:15 PM 60.8 °F 51.8 °F 72% 30.05 in 10.0 mi Calm Calm - N/A   Clear
11:35 PM 60.8 °F 51.8 °F 72% 30.05 in 10.0 mi Calm Calm - N/A   Clear
11:55 PM 60.8 °F 51.8 °F 72% 30.05 in 10.0 mi Calm Calm - N/A   Clear